Probability
0 0 0 0 0 0 0 0 0 0 0 0 0 0 0 0 0 0 0 0 0 0 0 0 0 0 0 0 0 0 0 0 0 0 0 0 0 0 0 0 0 0 0 0
0 0 0 0 0 0 0 0 0 0 0 0 0 0 0 0 0 0 0 0 0 0 0 0 0 0 0 0 0 0 0 0 0 0 0 0 0 0 0 0 0 0 0 0
0 0 0 0 0 0 0 0 0 0 0 0 0 0 0 0 0 0 0 0 0 0 0 0 0 0 0 0 0 0 0 0 0 0 0 0 0 0 0 0 0 0 0 0
0 0 0 0 0 0 0 0 0 0 0 0 0 0 0 0 0 0 0 0 0 0 0 0 0 0 0 0 0 0 0 0 0 0 0 0 0 0 0 0 0 0 0 0
0 0 0 0 0 0 0 0 0 0 0 0 0 0 0 0 0 0 0 0 0 0 0 0 0 0 0 0 1 1 1 0 0 0 0 0 0 0 0 0 0 0 0 0
0 0 0 0 0 0 0 0 0 0 0 0 0 0 0 0 0 0 0 0 0 0 0 0 0 0 0 0 1 2 1 0 0 0 0 0 0 0 0 0 0 0 0 0
0 0 0 0 0 0 0 0 0 0 0 0 0 0 0 0 0 0 0 0 0 0 0 0 0 0 0 0 1 1 1 0 0 0 0 0 0 0 0 0 0 0 0 0
0 0 0 0 0 0 0 0 0 0 0 0 0 0 0 0 0 0 0 0 0 0 0 0 0 0 0 0 0 0 0 0 0 0 0 0 0 0 0 0 0 0 0 0
0 0 0 0 0 0 0 0 0 0 0 0 0 0 0 0 0 0 0 0 0 0 0 0 0 0 0 0 0 0 0 0 0 0 0 0 0 0 0 0 0 0 0 0
0 0 0 0 0 0 0 0 0 0 0 0 0 0 0 0 0 0 0 0 0 0 0 0 0 0 0 0 0 0 0 0 0 0 0 0 0 0 0 0 0 0 0 0
0 0 0 0 0 0 0 0 0 0 0 0 0 0 0 0 0 0 0 0 0 0 0 0 0 0 0 0 0 0 0 0 0 0 0 0 0 0 0 0 0 0 0 0
0 0 0 0 0 0 0 0 0 0 0 0 0 0 0 0 0 0 0 0 0 0 0 0 0 0 0 0 0 0 0 0 0 0 0 0 0 0 0 0 0 0 0 0
0 0 0 0 0 0 0 0 0 0 0 0 0 0 0 0 0 0 0 0 0 0 0 0 0 0 0 0 0 0 0 0 0 0 0 0 0 0 0 0 0 0 0 0
0 0 0 0 0 0 0 0 0 0 0 0 0 0 0 0 0 0 0 0 0 0 0 0 0 0 0 0 0 0 0 0 0 0 0 0 0 0 0 0 0 0 0 0
0 0 0 0 0 0 0 0 0 0 0 0 0 0 0 0 0 0 0 0 0 0 0 0 0 0 0 0 0 0 0 0 0 0 0 0 0 0 0 0 0 0 0 0
0 0 0 0 0 0 0 0 0 0 0 0 0 0 0 0 0 0 0 0 0 0 0 0 0 0 0 0 0 0 0 0 0 0 0 0 0 0 0 0 0 0 0 0
0 0 0 0 0 0 0 0 0 0 0 0 0 0 0 0 0 0 0 0 0 0 0 0 0 0 0 0 0 0 0 0 0 0 0 0 0 0 0 0 0 0 0 0
0 0 0 0 0 0 0 0 0 0 0 0 0 0 0 0 0 0 0 0 0 0 0 0 0 0 0 0 0 0 0 0 0 0 0 0 0 0 0 0 0 0 0 0
0 0 0 0 0 0 0 0 0 0 0 0 0 0 0 0 0 0 0 0 0 0 0 0 0 0 0 0 0 0 0 0 0 0 0 0 0 0 0 0 0 0 0 0
0 0 0 0 0 0 0 0 0 0 0 0 0 0 0 0 0 0 0 0 0 0 0 0 0 0 0 0 0 0 0 0 0 0 0 0 0 0 0 0 0 0 0 0
0 0 0 0 0 0 0 0 0 0 0 0 0 0 0 0 0 0 0 0 0 0 0 0 0 0 0 0 0 0 0 0 0 0 0 0 0 0 0 0 0 0 0 0
0 0 0 0 0 0 0 0 0 0 0 0 0 0 0 0 0 0 0 0 0 0 0 0 0 0 0 0 0 0 0 0 0 0 0 0 0 0 0 0 0 0 0 0
0 0 0 0 0 0 0 0 0 0 0 0 0 0 0 0 0 0 0 0 0 0 0 0 0 0 0 0 0 0 0 0 0 0 0 0 0 0 0 0 0 0 0 0
0 0 0 0 0 0 0 0 0 0 0 0 0 0 0 0 0 0 0 0 0 0 0 0 0 0 0 0 0 0 0 0 0 0 0 0 0 0 0 0 0 0 0 0
0 0 0 0 0 0 0 0 0 0 0 0 0 0 0 0 0 0 0 0 0 0 0 0 0 0 0 0 0 0 0 0 0 0 0 0 0 0 0 0 0 0 0 0
0 0 0 0 0 0 0 0 0 0 1 0 0 0 0 0 0 0 0 0 0 0 0 0 0 0 0 0 0 0 0 0 0 0 0 0 0 0 0 0 0 0 0 0
0 0 0 0 0 0 0 0 0 0 1 0 0 0 0 0 0 0 0 0 0 0 0 0 0 0 0 0 0 0 0 0 0 0 0 0 0 0 0 0 0 0 0 0
Wind_Speed
5 5 4 4 4 4 4 6 6 6 6 8 8 8 7 6 6 6 6 5 6 5 4 3 3 3 3 3 3 3 3 3 4 3 2 2 2 2 2 1 2 2 2 2
3 3 3 4 5 5 5 5 5 4 6 7 5 3 4 6 7 7 6 7 6 6 5 5 4 4 4 4 3 3 4 4 4 3 2 2 2 2 2 2 1 2 2 2
3 4 2 5 7 6 5 5 6 7 7 4 3 5 6 7 7 7 7 6 6 6 6 6 6 6 5 5 4 3 4 4 3 3 3 3 3 2 2 2 2 2 2 2
1 1 5 8 5 5 5 5 5 4 4 4 6 6 4 6 7 6 6 6 5 5 5 5 5 5 4 4 4 4 3 4 4 4 4 3 3 3 3 2 2 2 2 2
3 3 6 6 4 4 4 3 2 4 3 3 3 3 2 1 4 6 6 5 5 5 5 5 5 4 4 4 4 4 4 4 4 4 4 4 4 4 3 3 2 2 2 3
4 3 6 7 4 2 4 3 3 4 5 4 4 2 4 3 2 2 3 3 4 3 3 4 4 4 4 4 4 5 6 6 5 5 5 5 5 4 3 3 3 2 2 2
4 4 8 7 3 3 3 7 3 4 5 6 5 6 4 2 2 2 3 2 3 3 3 4 4 4 4 4 6 6 5 4 4 4 5 5 4 3 3 3 3 2 2 2
5 5 9 4 3 5 7 3 2 3 4 5 4 3 2 2 2 1 1 1 2 2 2 3 3 4 4 5 5 4 3 3 3 3 3 3 3 3 3 4 3 2 2 1
8 8 6 3 4 4 3 3 3 3 3 5 4 3 2 2 2 2 2 2 2 2 3 2 2 4 5 5 3 3 3 3 3 3 3 3 3 3 3 3 3 2 2 2
3 6 4 2 1 1 2 3 3 4 4 5 5 4 3 3 2 2 2 2 2 2 2 2 2 3 4 4 3 4 4 3 3 3 2 2 3 3 3 3 3 3 3 3
3 5 3 3 2 2 1 1 2 2 3 4 5 4 4 4 3 3 3 3 3 3 3 4 3 2 3 3 4 4 3 3 2 2 2 2 2 2 4 4 5 5 5 5
6 6 4 6 5 3 2 2 2 2 2 2 4 4 4 4 4 3 3 3 2 3 3 4 3 3 3 4 5 5 3 3 2 2 2 2 2 1 2 3 4 6 6 5
5 4 4 5 4 3 3 3 2 2 3 3 2 3 4 3 3 3 3 3 4 4 4 4 4 3 4 4 4 5 4 3 3 2 2 2 3 3 2 1 2 3 4 4
3 1 3 3 3 3 2 2 2 1 1 2 3 3 3 3 2 3 4 5 4 4 3 4 4 4 4 4 4 4 4 4 3 3 3 3 3 3 3 3 2 2 2 4
4 3 4 3 2 2 1 1 1 1 1 1 2 3 4 4 4 5 4 3 3 3 3 2 3 3 3 3 4 4 4 3 3 3 3 3 3 3 3 3 3 2 1 2
3 2 2 2 3 3 2 1 2 2 2 2 2 3 4 5 4 4 3 3 4 4 3 3 3 3 2 2 3 3 3 4 3 3 3 2 2 3 3 3 3 3 3 3
2 3 3 3 3 3 3 3 4 3 3 3 4 3 3 3 3 3 4 4 4 4 4 4 3 3 2 2 3 2 2 3 3 2 3 3 3 4 4 4 4 4 4 4
5 6 5 5 4 4 3 3 3 3 3 4 3 3 3 3 4 5 4 3 3 2 3 3 3 3 2 2 2 2 2 2 3 3 3 3 3 3 3 4 4 5 3 3
3 4 4 4 4 3 3 3 3 3 3 2 2 3 4 4 4 4 3 3 3 3 4 3 3 3 3 3 2 2 2 2 2 2 3 3 3 3 3 3 4 4 4 3
3 2 2 2 2 2 2 2 2 2 2 2 2 2 2 3 3 3 3 3 4 4 4 3 3 3 3 3 2 2 2 3 3 2 2 2 3 3 3 3 4 4 4 4
2 2 2 2 2 2 2 2 2 2 2 2 3 3 3 3 2 3 3 3 4 3 3 3 3 2 3 2 2 2 2 3 3 3 3 3 3 3 3 3 3 4 4 4
1 1 1 2 2 2 2 2 1 2 2 2 2 2 2 2 2 2 3 4 3 2 2 2 2 3 2 2 2 2 2 3 3 3 3 3 3 3 3 3 3 3 3 3
2 1 1 1 2 2 2 1 1 1 2 2 2 2 3 3 2 2 3 3 2 3 2 2 3 3 2 2 2 2 3 3 3 3 3 3 3 3 3 4 3 3 3 3
1 1 2 1 1 1 1 2 1 1 1 2 2 2 2 1 1 2 2 3 3 3 2 3 4 3 2 1 2 2 3 3 3 3 3 3 3 3 3 3 3 3 3 3
2 2 1 1 1 1 2 1 1 1 1 0 1 1 1 1 2 2 1 2 2 2 1 2 3 3 2 2 2 3 2 3 3 2 3 3 3 3 3 2 2 2 2 2
2 1 1 1 1 1 1 0 1 1 1 1 1 1 1 1 1 1 1 1 1 1 1 1 2 2 2 2 2 2 2 2 2 2 2 2 2 2 2 2 2 2 2 2
2 1 1 2 2 1 1 1 1 1 1 1 1 2 1 1 1 0 1 1 1 1 1 1 1 2 1 2 2 2 2 2 2 2 2 2 2 2 2 2 2 1 1 2
Wind_Direction
234 246 234 232 235 218 194 190 193 222 219 234 222 210 202 190 176 168 171 174 175 182 189 193 196 202 199 208 209 199 188 199 211 211 204 191 177 178 172 157 168 163 153 159
290 271 256 254 244 222 218 209 204 215 245 243 218 186 177 174 169 170 181 187 184 184 187 193 202 207 206 208 214 200 194 210 211 190 185 186 187 172 159 146 155 145 148 155
269 295 338 259 234 210 206 207 186 209 230 219 177 180 180 178 176 180 186 189 189 193 198 200 204 201 203 211 202 195 202 208 200 188 189 197 188 162 167 172 157 159 170 162
220 346 243 246 242 197 191 223 205 199 206 189 184 184 177 171 172 183 186 186 192 197 203 209 209 207 205 200 192 194 203 207 204 194 198 196 180 178 187 178 170 184 187 186
150 218 271 283 258 182 174 247 210 170 167 155 136 85 7 205 173 182 186 186 190 195 198 201 209 206 193 197 197 200 210 216 211 201 197 191 190 195 194 177 184 198 192 182
157 196 234 245 250 179 113 259 267 165 158 154 122 122 252 254 204 178 175 178 182 186 188 197 215 194 183 199 199 211 220 222 214 203 197 199 201 197 192 180 190 190 201 200
184 221 257 255 252 99 154 233 233 173 163 158 171 196 217 207 196 182 172 178 181 177 186 206 201 178 190 199 212 222 223 218 208 203 201 203 198 193 182 180 175 183 199 224
173 208 250 251 142 175 212 219 181 170 169 168 179 175 162 167 170 170 176 189 184 186 211 215 191 178 195 211 220 216 208 200 202 201 198 193 182 185 175 168 168 183 190 233
190 214 236 217 204 218 182 178 192 175 178 166 164 171 173 189 208 219 214 215 208 198 217 237 214 194 206 223 211 184 178 188 194 192 194 182 175 174 168 168 173 189 194 213
237 260 261 254 233 207 180 186 193 183 177 167 175 184 189 197 215 225 229 228 218 191 210 236 244 227 218 210 184 173 177 191 194 189 196 192 183 180 177 181 187 195 204 216
249 271 312 303 263 249 269 139 145 171 180 179 173 188 190 197 210 218 228 230 203 199 212 229 235 249 230 196 177 179 186 193 198 194 190 193 188 194 193 202 197 198 209 209
227 231 212 251 263 248 206 219 196 176 192 201 186 189 190 202 209 211 217 224 225 227 225 228 224 232 225 198 182 180 185 193 196 196 196 194 183 202 235 210 211 211 211 210
227 244 236 253 259 257 224 223 209 187 186 199 202 185 183 201 210 209 217 224 224 229 229 223 215 217 219 204 187 186 191 196 197 196 193 196 192 188 213 282 245 211 208 213
237 221 264 262 259 269 238 221 205 190 187 179 183 182 184 192 206 213 225 233 234 237 233 216 208 221 222 202 187 188 191 197 196 201 199 201 205 204 197 198 225 265 241 220
249 228 221 243 269 287 271 199 139 186 219 226 197 187 191 202 217 227 233 235 228 225 227 209 208 228 221 192 187 190 190 195 197 202 199 200 206 206 205 205 210 230 265 251
270 273 222 225 248 270 268 213 189 216 219 220 218 214 209 209 220 228 224 207 200 210 212 203 219 230 206 180 182 190 197 204 194 197 200 204 206 207 209 211 212 214 222 231
225 246 245 250 255 264 252 234 209 211 216 218 224 220 209 208 219 229 230 219 199 200 204 206 223 220 195 186 184 191 195 198 199 200 203 208 210 211 211 210 215 221 228 228
217 226 226 221 231 244 252 246 223 213 220 229 220 195 194 203 217 227 228 202 185 207 225 220 210 193 193 198 194 192 191 193 197 208 212 216 218 216 213 214 218 224 233 229
243 238 243 243 240 228 234 245 240 231 225 209 196 204 214 218 224 226 200 180 189 220 243 231 201 184 198 211 196 191 194 198 203 215 220 222 225 221 217 219 222 222 220 218
270 260 247 255 258 231 242 260 257 245 237 203 195 212 231 241 234 208 189 202 218 224 224 212 193 200 211 212 195 193 200 203 207 212 220 220 219 223 222 222 221 220 219 217
273 275 254 247 253 250 244 244 235 238 236 200 192 208 226 242 223 193 190 237 258 245 219 208 201 211 213 216 199 194 204 209 211 212 215 220 221 222 220 223 226 226 223 222
283 274 262 249 240 265 271 252 230 226 229 224 222 226 229 238 224 215 217 228 241 236 212 209 213 226 235 210 190 200 211 216 219 216 215 217 218 219 220 227 231 228 222 219
279 285 292 266 234 244 273 273 250 211 220 233 231 226 223 221 213 211 254 262 238 225 210 214 232 239 235 189 198 207 214 218 222 224 223 222 223 223 223 226 230 221 213 213
295 297 292 305 22 33 319 301 297 246 219 229 238 232 219 226 271 259 252 259 257 245 224 224 231 245 246 212 209 214 219 225 227 226 225 228 225 225 226 226 227 228 221 215
311 311 326 1 27 280 275 303 328 316 300 289 304 286 245 211 221 251 263 253 252 237 225 238 246 252 231 211 215 219 220 229 239 232 221 221 222 224 225 225 224 223 222 217
324 314 292 275 257 259 280 286 285 275 255 284 310 306 304 304 280 278 278 268 246 241 228 227 229 238 224 223 224 221 219 227 236 239 233 225 220 217 220 224 228 225 222 222
342 339 343 343 336 341 354 325 295 276 253 236 272 291 295 301 298 298 283 265 254 241 234 235 229 222 218 219 223 223 224 224 222 228 229 220 212 209 209 212 216 222 220 218